Location: Newark
(43.4306°N, 0.3089°E)
Time: 09:56:56
(UTC+00:00)

Altair - All Passes

Search period start: 24 August 2019 00:00
Search period end: 03 September 2019 00:00
Orbit: 1501 x 1683 km, 47.2° (Epoch: 23 August)

Date Brightness Start Highest point End Pass type
(mag) Time Alt. Az. Time Alt. Az. Time Alt. Az.
24 Aug - 00:23:39 10° S 00:30:37 22° SE 00:37:25 10° E visible
24 Aug - 02:24:21 10° SW 02:34:05 64° SE 02:43:28 10° ENE visible
24 Aug - 04:29:06 10° W 04:38:53 75° NNW 04:48:19 10° ENE visible
24 Aug - 06:34:42 10° WNW 06:44:18 77° NNE 06:53:35 10° E daylight
24 Aug - 08:39:47 10° WNW 08:48:55 59° SW 08:57:51 10° SE daylight
24 Aug - 10:46:24 10° W 10:52:02 18° SW 10:57:40 10° SSW daylight
24 Aug - 23:59:04 10° SSE 00:05:34 20° SE 00:11:56 10° E visible
25 Aug - 01:59:14 10° SW 02:08:56 60° SE 02:18:18 10° ENE visible
25 Aug - 04:03:50 10° W 04:13:41 77° NNW 04:23:08 10° ENE visible
25 Aug - 06:09:27 10° WNW 06:19:06 75° N 06:28:24 10° E daylight
25 Aug - 08:14:34 10° WNW 08:23:48 63° SW 08:32:49 10° SE daylight
25 Aug - 10:20:51 10° W 10:27:03 20° SW 10:33:11 10° S daylight
25 Aug - 23:34:34 10° SSE 23:40:32 18° SE 23:46:23 10° E visible
26 Aug - 01:34:09 10° SW 01:43:48 57° SE 01:53:07 10° ENE visible
26 Aug - 03:38:34 10° WSW 03:48:27 79° NNW 03:57:58 10° ENE visible
26 Aug - 05:44:12 10° WNW 05:53:54 74° N 06:03:12 10° E daylight
26 Aug - 07:49:21 10° WNW 07:58:42 67° SSW 08:07:46 10° SE daylight
26 Aug - 09:55:23 10° W 10:02:02 22° SW 10:08:37 10° S daylight
26 Aug - 23:10:12 10° SSE 23:15:30 16° SE 23:20:43 10° E visible
27 Aug - 01:09:06 10° SW 01:18:40 53° SE 01:27:55 10° ENE visible
27 Aug - 03:13:18 10° WSW 03:23:14 81° NNW 03:32:47 10° ENE visible
27 Aug - 05:18:57 10° WNW 05:28:40 73° N 05:38:00 10° E daylight
27 Aug - 07:24:08 10° WNW 07:33:34 71° SSW 07:42:42 10° SE daylight
27 Aug - 09:29:57 10° W 09:37:01 25° SW 09:43:59 10° S daylight
27 Aug - 22:45:59 10° SSE 22:50:28 14° ESE 22:54:54 10° E visible
28 Aug - 00:44:03 10° SSW 00:53:32 50° SE 01:02:43 10° ENE visible
28 Aug - 02:48:03 10° WSW 02:58:01 83° NNW 03:07:36 10° ENE visible
28 Aug - 04:53:42 10° W 05:03:26 72° N 05:12:48 10° E daylight
28 Aug - 06:58:55 10° WNW 07:08:26 75° SSW 07:17:37 10° SE daylight
28 Aug - 09:04:34 10° WNW 09:11:59 27° SW 09:19:17 10° S daylight
28 Aug - 22:22:05 10° SE 22:25:27 12° ESE 22:28:47 10° ESE visible
29 Aug - 00:19:02 10° SSW 00:28:25 46° SE 00:37:30 10° ENE visible
29 Aug - 02:22:48 10° WSW 02:32:48 86° NNW 02:42:26 10° ENE visible
29 Aug - 04:28:25 10° W 04:38:12 71° N 04:47:36 10° E visible
29 Aug - 06:33:43 10° WNW 06:43:17 78° SSW 06:52:31 10° SE daylight
29 Aug - 08:39:13 10° WNW 08:46:57 30° SW 08:54:33 10° S daylight
29 Aug - 21:59:02 10° SE 22:00:26 10° ESE 22:01:50 10° ESE visible
29 Aug - 23:54:03 10° SSW 00:03:18 43° SE 00:12:17 10° ENE visible
30 Aug - 01:57:34 10° WSW 02:07:36 89° NNW 02:17:16 10° ENE visible
30 Aug - 04:03:08 10° W 04:12:58 71° N 04:22:23 10° E visible
30 Aug - 06:08:29 10° WNW 06:18:08 82° SSW 06:27:24 10° ESE daylight
30 Aug - 08:13:53 10° WNW 08:21:55 33° SW 08:29:46 10° SSE daylight
30 Aug - 23:29:06 10° SSW 23:38:11 40° SE 23:47:03 10° ENE visible
31 Aug - 01:32:20 10° WSW 01:42:24 88° SSE 01:52:05 10° ENE visible
31 Aug - 03:37:52 10° W 03:47:44 71° N 03:57:11 10° E visible
31 Aug - 05:43:16 10° WNW 05:52:58 86° SSW 06:02:17 10° ESE daylight
31 Aug - 07:48:35 10° WNW 07:56:52 36° SW 08:04:56 10° SSE daylight
31 Aug - 23:04:10 10° SSW 23:13:05 37° SE 23:21:47 10° ENE visible
01 Sep - 01:07:07 10° WSW 01:17:12 85° SSE 01:26:55 10° ENE visible
01 Sep - 03:12:35 10° W 03:22:29 71° N 03:31:59 10° E visible
01 Sep - 05:18:02 10° WNW 05:27:47 89° SSW 05:37:08 10° ESE daylight
01 Sep - 07:23:17 10° WNW 07:31:49 39° SW 07:40:05 10° SSE daylight
01 Sep - 22:39:17 10° SSW 22:47:59 34° SE 22:56:31 10° ENE visible
02 Sep - 00:41:55 10° WSW 00:52:00 82° SSE 01:01:45 10° ENE visible
02 Sep - 02:47:18 10° W 02:57:14 71° N 03:06:47 10° E visible
02 Sep - 04:52:48 10° WNW 05:02:35 88° NNE 05:11:59 10° ESE visible
02 Sep - 06:58:01 10° WNW 07:06:45 42° SW 07:15:13 10° SSE daylight
02 Sep - 22:14:26 10° S 22:22:54 32° SE 22:31:12 10° ENE visible
